This is the latest recevied weather packets stored in our database for station/object DL1VED. If no packets are shown the sender has not sent any weather packets the latest 10 day(s).
| Time | Temp. | Humidity | Pressure | Rain* | Wind** | Luminosity | Snow |
|---|---|---|---|---|---|---|---|
| 1778102046 | 9.44° C | 81% | 1009.3 hPa | 0 mm | - | - | - |
| 1778101146 | 10° C | 81% | 1009.2 hPa | 0 mm | - | - | - |
| 1778100246 | 10° C | 81% | 1009.2 hPa | 0 mm | - | - | - |
| 1778099346 | 10° C | 82% | 1009.2 hPa | 0 mm | - | - | - |
| 1778098446 | 10° C | 82% | 1009 hPa | 0 mm | - | - | - |
| 1778097546 | 10° C | 82% | 1008.9 hPa | 0 mm | - | - | - |
| 1778096646 | 10° C | 82% | 1008.7 hPa | 0 mm | - | - | - |
| 1778095746 | 10° C | 82% | 1008.6 hPa | 0 mm | - | - | - |
| 1778094846 | 10° C | 82% | 1008.3 hPa | 0 mm | - | - | - |
| 1778093946 | 10° C | 82% | 1008.1 hPa | 0 mm | - | - | - |
| 1778093046 | 10° C | 81% | 1007.9 hPa | 0 mm | - | - | - |
| 1778092146 | 10.56° C | 81% | 1007.8 hPa | 0 mm | - | - | - |
| 1778091246 | 10.56° C | 80% | 1007.7 hPa | 0 mm | - | - | - |
| 1778090346 | 10.56° C | 80% | 1007.6 hPa | 0 mm | - | - | - |
| 1778089446 | 11.11° C | 100% | 1007.4 hPa | 0 mm | - | - | - |
| 1778088546 | 11.11° C | 79% | 1007.4 hPa | 0 mm | - | - | - |
| 1778087646 | 11.67° C | 79% | 1007.2 hPa | 0 mm | - | - | - |
| 1778086746 | 11.67° C | 82% | 1007.1 hPa | 0 mm | - | - | - |
| 1778085846 | 11.11° C | 82% | 1007.2 hPa | 0 mm | - | - | - |
| 1778084946 | 11.11° C | 82% | 1007.3 hPa | 0 mm | - | - | - |
| 1778084046 | 11.67° C | 80% | 1007.2 hPa | 0 mm | - | - | - |
| 1778083146 | 11.67° C | 80% | 1007.1 hPa | 0 mm | - | - | - |
| 1778082246 | 12.22° C | 79% | 1007.1 hPa | 0 mm | - | - | - |
| 1778081346 | 12.22° C | 79% | 1007 hPa | 0 mm | - | - | - |
| 1778080446 | 12.22° C | 79% | 1006.8 hPa | 0 mm | - | - | - |
* Rain latest hour (hover to see other rain measurements)
** Current wind speed in m/s (hover to see current wind gust speed)